This is the latest recevied weather packets stored in our database for station/object N7MLR. If no packets are shown the sender has not sent any weather packets the latest 10 day(s).
| Time | Temp. | Humidity | Pressure | Rain* | Wind** | Luminosity | Snow |
|---|---|---|---|---|---|---|---|
| 1777837376 | 24.44° C | 43% | 1020.1 hPa | 0 mm | - | 782 W/m² | - |
| 1777837073 | 25° C | 40% | 1020.2 hPa | 0 mm | - | 682 W/m² | - |
| 1777836769 | 25° C | 43% | 1020.4 hPa | 0 mm | - | 768 W/m² | - |
| 1777836465 | 25.56° C | 41% | 1020.5 hPa | 0 mm | - | 772 W/m² | - |
| 1777836160 | 25.56° C | 41% | 1020.6 hPa | 0 mm | - | 794 W/m² | - |
| 1777835857 | 25° C | 41% | 1020.5 hPa | 0 mm | - | 791 W/m² | - |
| 1777835554 | 25.56° C | 40% | 1020.8 hPa | 0 mm | - | 784 W/m² | - |
| 1777835251 | 25° C | 40% | 1020.8 hPa | 0 mm | - | 766 W/m² | - |
| 1777834948 | 25° C | 40% | 1020.8 hPa | 0 mm | - | 753 W/m² | - |
| 1777834645 | 25° C | 39% | 1020.7 hPa | 0 mm | - | 737 W/m² | - |
| 1777834341 | 24.44° C | 40% | 1020.8 hPa | 0 mm | - | 735 W/m² | - |
| 1777834035 | 24.44° C | 39% | 1020.8 hPa | 0 mm | - | 758 W/m² | - |
| 1777833732 | 25° C | 39% | 1021.2 hPa | 0 mm | - | 780 W/m² | - |
| 1777833429 | 25° C | 37% | 1021.4 hPa | 0 mm | - | 759 W/m² | - |
| 1777833126 | 24.44° C | 41% | 1021.3 hPa | 0 mm | - | 741 W/m² | - |
| 1777832824 | 25° C | 38% | 1021.3 hPa | 0 mm | - | 739 W/m² | - |
| 1777832522 | 25° C | 38% | 1021.3 hPa | 0 mm | - | 728 W/m² | - |
| 1777832218 | 25° C | 39% | 1021.2 hPa | 0 mm | - | 701 W/m² | - |
| 1777831915 | 25° C | 37% | 1021.5 hPa | 0 mm | - | 709 W/m² | - |
| 1777831612 | 24.44° C | 38% | 1021.6 hPa | 0 mm | - | 739 W/m² | - |
| 1777831311 | 25° C | 37% | 1021.6 hPa | 0 mm | - | 766 W/m² | - |
| 1777831007 | 24.44° C | 40% | 1021.8 hPa | 0 mm | - | 752 W/m² | - |
| 1777830704 | 25° C | 40% | 1021.9 hPa | 0 mm | - | 743 W/m² | - |
| 1777830400 | 25° C | 40% | 1022 hPa | 0 mm | - | 757 W/m² | - |
| 1777830098 | 24.44° C | 40% | 1022.2 hPa | 0 mm | - | 758 W/m² | - |
* Rain latest hour (hover to see other rain measurements)
** Current wind speed in m/s (hover to see current wind gust speed)